User: anonymous   Login
Location: Ammerl�gen
(47.2167°N, 9.6000°E)
Time: 09:48:10
(UTC+00:00)
Language:

NO-84 - Orbit

View from above orbital plane
View from above orbital plane
View from above satellite
View from above satellite

Ground track
Ground track

The orbit data is extracted from the following two-line orbital elements,

1 40654U 15025D   21329.44060981  .00223018  30919-4  46933-3 0  2578
2 40654  54.9683 351.4983 0034091 126.8071 233.6049 15.97385237 32485
Epoch (UTC): 25 November 2021 10:34:28
Eccentricity: 0.0034091
inclination: 54.9683°
perigee height: 259 km
apogee height: 304 km
right ascension of ascending node: 351.4983°
argument of perigee: 126.8071°
revolutions per day: 15.97385237
mean anomaly at epoch: 233.6049°
orbit number at epoch: 3248

The dashed part of the orbit path shows where the satellite is in the earth's shadow,  

DLR